SL-14 DEB

Satellite information

Favourite Embed

Satellite Type and Status

DEBRISIN ORBIT

Key statistics

Satellite SL-14 DEB at a glance.

Uptime

12540

Days in orbit

Revolutions

≈ 14.3

Per day

Orbit

LEO

Low Earth Orbit

Inclination

82.5

Latest

Satellite identification and parameters

Extended collection of information and parameters for SL-14 DEB.

Object identification

Identified? True

Debris? True

Object name: SL-14 DEB

International designator: 1991-056AF

Object number (NORAD): 45293

Object ID (CCSDS): 45293

Country: COMMONWEALTH OF INDEPENDENT STATES (CIS)

Current information (Y/N): Y

RCS size: SMALL

Orbital parameters

Period: 100.487 minutes

Inclination: 82.5201 deg

SMA: 7159.78 km

Apoapsis: 870.477 km

Periapsis: 692.814 km

RAAN: 104.5893 deg

Eccentricy: 0.012407

Argument of periapsis: 314.2454 deg

Mean anomaly: 44.8599 deg

Mean motion: 14.33023168 rev/day

Mean motion (dot): 0.00054329 rev/day2

B* drag term: 0.018087 1/REarth

Two-line elements (TLE)

Creation date: Dec. 9, 2025, 11:46 p.m.

Reference frame: TEME

Reference center: EARTH

Epoch: Dec. 9, 2025, 2:33 p.m. UTC

TLE line 0: 0 SL-14 DEB

TLE line 1: 1 45293U 91056AF 25343.60656306 .00054329 00000-0 18087-1 0 9991

TLE line 2: 2 45293 82.5201 104.5893 0124070 314.2454 44.8599 14.33023168291989

Live tracking on map

Real-time ground track for satellite SL-14 DEB.

In-orbit conjunctions

A list of the most updated potential collisions computed for object SL-14 DEB.

Target Orbit TCA Probability of collision Miss distance Type
CZ-2D R/B SSO 2024-10-14 21:59:34 0.0001861661 121.0 (m) ROCKET BODY
FENGYUN 1C DEB SSO 2024-09-25 12:53:22 0.000386829 247.0 (m) DEBRIS

Associated space launch

Third generation meteorological satellite

SL-14 DEB was lifted into orbit during the mission ‘Tsiklon-3 | Meteor-3 5’, on board a Tsiklon-3 space rocket.

The launch took place on Aug. 15, 1991, 9:15 a.m. from 32/2.

For more information about the launch, click the button.

Launch to space Tsiklon-3 | Meteor-3 5
Tsiklon-3 | Meteor-3 5

Agency: N/A

Status: Launch Successful

Launch date: Aug. 15, 1991, 9:15 a.m. UTC

Rocket: Tsiklon-3

Launch pad: 32/2

Location: Plesetsk Cosmodrome, Russian Federation

...

Latest news about this satellite

There are no fresh news available about this satellite. Check back as we update our databases every day.


Newsletter sign-up

Weekly statistics, charts and insights to help you stay on top of the space industry.